THORAD DELTA 1 DEB, 8560

Orbit data source: Space-Track

THORAD DELTA 1 DEB, 8560 is space debris in SSO originally from a launch on Fri, 15 Nov 1974 UTC launched from the Air Force Western Test Range (AFWTR). Debris objects in space refer to the collection of defunct objects orbiting the Earth. Examples of debris include non-operational satellites, rocket bodies, and fragments generated from explosions, collisions, or faulty payload assembly.

Loading next visibility...
Identifier
8560, 1974-089CX
Orbit
SSO
Country
Flag of USUS
Related business
Manufacturer
Unknown
Mission
Spacecraft
Bus & Motor
Unknown
Mass
Unknown
Launch date (UTC)
1974-11-15 (51 years ago)
Launch vehicle
Unknown
Launch site
Air Force Western Test Range (AFWTR)
Object type
Payload
Rocket body
Debris
Shape & HBR
Unknown shape, 0.1 m
Radar Cross Section
Small (<0.1 m²)

Expand to show TLE details & history
Last TLE update: 19 hours ago

TLE from 19 hours ago
0 THORAD DELTA 1 DEB
1  8560U 74089CX  26103.71903677  .00000487  00000-0  70843-3 0  9993
2  8560 102.1110  29.7350 0402759 111.6161 252.8357 13.32727950485173
Epoch: 2026-04-13T17:15Z
TLE epoch observation values (Epoch: 2026-04-13T17:15:24.776Z)
Latitude
-0.00007°
Longitude
-71.02383°
Altitude
1,239.428 km
Speed
7.187 km/s
True Right ascension
01h 58m 56s
True Declination
0° 00' 00"
Sunlit
Object was in daylight at epoch
Visualization orbit readout
Latitude
Unknown
Longitude
Unknown
Altitude
Unknown
Speed
Unknown
Apparent Right ascension
Unknown
Apparent Declination
Unknown
Sunlit
N/A
Visualization observer readout
Local Sidereal Time
18:52:16
Azimuth
Unknown
Elevation
Unknown
Doppler factor
Unknown
Orbital elements
Apogee altitude
1,436.503 km
Perigee altitude
831.391 km
Semi-major axis
7,512.084 km
Eccentricity
0.04028
Inclination
102.111°
RAAN
29.735°
Arg. of periapsis
111.6161°
True anomaly
248.49472°
Mean anomaly
252.8357°
Eccentric anomaly
250.6583°
Mean motion
3.33352 °/min
Orbital period
107.99 mins
BSTAR
0.00070843
Loading maneuver chart data...
Computing Atmospheric mass density...

Documentation

Showing up to 5 results
|